This is the latest recevied weather packets stored in our database for station/object WB5TZJ. If no packets are shown the sender has not sent any weather packets the latest 10 day(s).
| Time | Temp. | Humidity | Pressure | Rain* | Wind** | Luminosity | Snow |
|---|---|---|---|---|---|---|---|
| 1777612248 | 22.78° C | 45% | 1011.1 hPa | 0 mm | - | - | - |
| 1777611648 | 22.78° C | 49% | 1011.5 hPa | 0 mm | - | - | - |
| 1777611048 | 22.78° C | 52% | 1010.8 hPa | 0 mm | - | - | - |
| 1777610448 | 22.78° C | 46% | 1011.1 hPa | 0 mm | - | - | - |
| 1777609849 | 22.78° C | 48% | 1011.8 hPa | 0 mm | - | - | - |
| 1777609248 | 22.78° C | 53% | 1011.1 hPa | 0 mm | - | - | - |
| 1777608649 | 22.78° C | 47% | 1011.1 hPa | 0 mm | - | - | - |
| 1777608049 | 22.78° C | 49% | 1011.5 hPa | 0 mm | - | - | - |
| 1777607449 | 22.78° C | 52% | 1011.5 hPa | 0 mm | - | - | - |
| 1777606849 | 22.78° C | 48% | 1011.5 hPa | 0 mm | - | - | - |
| 1777606249 | 22.78° C | 46% | 1011.8 hPa | 0 mm | - | - | - |
| 1777605649 | 22.78° C | 50% | 1010.1 hPa | 0 mm | - | - | - |
| 1777605049 | 22.78° C | 50% | 1009.8 hPa | 0 mm | - | - | - |
| 1777604449 | 22.78° C | 46% | 1009.8 hPa | 0 mm | - | - | - |
| 1777603849 | 22.78° C | 48% | 1010.4 hPa | 0 mm | - | - | - |
| 1777603249 | 22.78° C | 52% | 1010.8 hPa | 0 mm | - | - | - |
| 1777602649 | 22.22° C | 49% | 1010.4 hPa | 0 mm | - | - | - |
| 1777602049 | 22.78° C | 46% | 1010.4 hPa | 0 mm | - | - | - |
| 1777601449 | 22.78° C | 52% | 1009.8 hPa | 0 mm | - | - | - |
| 1777600849 | 22.78° C | 50% | 1009.4 hPa | 0 mm | - | - | - |
| 1777600249 | 22.22° C | 47% | 1009.1 hPa | 0 mm | - | - | - |
| 1777599649 | 22.78° C | 47% | 1008.8 hPa | 0 mm | - | - | - |
| 1777599049 | 22.78° C | 46% | 1008.8 hPa | 0 mm | - | - | - |
| 1777598449 | 22.78° C | 45% | 1009.1 hPa | 0 mm | - | - | - |
| 1777597849 | 22.78° C | 48% | 1009.1 hPa | 0 mm | - | - | - |
* Rain latest hour (hover to see other rain measurements)
** Current wind speed in m/s (hover to see current wind gust speed)